Location: Unspecified
(43.4680°N, 87.1740°E)
Time: 20:08:08
(UTC+00:00)

NOSS 0 Rocket - Pass Details

Date: 31 July 2021
Orbit: 936 x 954 km, 70.0° (Epoch: 22 September)

Event Time Altitude Azimuth Distance (km) Brightness Sun altitude
Rises 16:40:58 0° 337° (NNW) 3,637 8.4 -24.6°
Reaches altitude 10° 16:43:40 10° 345° (NNW) 2,686 7.3 -24.8°
Maximum altitude 16:49:33 42° 55° (NE) 1,331 4.7 -25.2°
Enters shadow 16:51:20 34° 93° (E) 1,504 4.7 -25.3°
